Squamish, British Columbia

2:13 PM PDT on October 19, 2017 (GMT -0700)
Squamish

Weather History for CWSK - March, 2013

Change the Weather History Date:

Wednesday, March 20, 2013

  Actual Average Record
Temperature  
Mean Temperature 43 °F -  
Max Temperature 54 °F - - ()
Min Temperature 32 °F - - ()
Degree Days  
Heating Degree Days 22    
Moisture  
Dew Point 36 °F    
Average Humidity 87    
Maximum Humidity 100    
Minimum Humidity 49    
Precipitation  
Precipitation 0.67 in - - ()
Sea Level Pressure  
Sea Level Pressure 29.47 in    
Wind  
Wind Speed 5 mph ()    
Max Wind Speed 17 mph    
Max Gust Speed 31 mph    
T = Trace of Precipitation, MM = Missing Value Source: Averaged Metar Reports

Daily Weather History Graph

Daily Weather History Graph

Search for Another Location

Airport or City:

Trip Planner

Search our weather history database for the weather conditions in past years. The results will help you decide how hot, cold, wet, or windy it might be!

Date:

Astronomy

Mar. 20, 2013 Rise Set
Actual Time 7:14 AM PDT 7:26 PM PDT
Civil Twilight 6:42 AM PDT 7:58 PM PDT
Nautical Twilight 6:04 AM PDT 8:36 PM PDT
Astronomical Twilight 5:25 AM PDT 9:15 PM PDT
Moon 12:36 PM PDT (3/20) 3:29 AM PDT (3/20)
Length of Visible Light 13h 15m
Length of Day
12h 11m
First Quarter, 60% of the Moon is Illuminated
Mar 20
First Quarter
Mar 27
Full
Apr 2
Last Quarter
Apr 10
New
Apr 18
First Quarter

Hourly Weather History & Observations

Time (PDT) Temp. Windchill Dew Point Humidity Pressure Visibility Wind Dir Wind Speed Gust Speed Precip Events Conditions
12:00 AM 36.1 °F 33.5 °F 35.8 °F 99% 29.60 in - NW 3.5 mph - 0.05 in   Unknown
1:00 AM 35.4 °F 32.6 °F 35.2 °F 99% 29.56 in - NW 3.5 mph - 0.11 in   Unknown
2:00 AM 34 °F - 34 °F 99% 29.52 in - NW 3.5 mph - -  
2:00 AM 34.0 °F 31.0 °F 33.8 °F 99% 29.52 in - NW 3.5 mph - 0.10 in   Unknown
3:00 AM 33.3 °F 30.2 °F 33.1 °F 99% 29.49 in - NNW 3.5 mph - 0.11 in   Unknown
4:00 AM 32.9 °F - 32.9 °F 100% 29.46 in - NNW 2.3 mph - 0.10 in   Unknown
5:00 AM 33 °F - 33 °F 99% 29.43 in - NNW 3.5 mph - -  
5:00 AM 32.9 °F 29.8 °F 32.9 °F 100% 29.43 in - NNW 3.5 mph - 0.09 in   Unknown
6:00 AM 33.1 °F - 33.1 °F 100% 29.39 in - NW 2.3 mph - 0.11 in   Unknown
7:00 AM 33.1 °F - 33.1 °F 100% 29.35 in - NW 2.3 mph - 0.09 in   Unknown
8:00 AM 33 °F - 33 °F 100% 29.33 in - NNW 4.6 mph - -  
8:00 AM 33.3 °F 28.9 °F 33.3 °F 100% 29.33 in - NNW 4.6 mph - 0.12 in   Unknown
9:00 AM 34.0 °F - 33.8 °F 99% 29.31 in - NNW 2.3 mph - 0.10 in   Unknown
10:00 AM 34.3 °F - 34.2 °F 99% 29.32 in - NNW 1.2 mph - 0.12 in   Unknown
11:00 AM 36 °F - 35 °F 97% 29.33 in - NNE 2.3 mph - -  
11:00 AM 35.6 °F - 35.4 °F 99% 29.33 in - NNE 2.3 mph - 0.11 in   Unknown
12:00 PM 39.2 °F - 38.1 °F 96% 29.34 in - NNE 1.2 mph - N/A   Unknown
1:00 PM 42.1 °F - 40.8 °F 95% 29.34 in - WNW 1.2 mph - N/A   Unknown
2:00 PM 54 °F - 40 °F 49% 29.36 in - South 10.4 mph - -  
2:00 PM 53.8 °F - 40.5 °F 61% 29.36 in - South 10.4 mph 19.6 mph N/A   Unknown
3:00 PM 51.8 °F - 36.5 °F 56% 29.37 in - South 17.3 mph 27.6 mph N/A   Unknown
4:00 PM 48.2 °F - 38.3 °F 69% 29.41 in - South 17.3 mph 25.3 mph N/A   Unknown
5:00 PM 45 °F - 38 °F 67% 29.46 in - SSE 17.3 mph - -  
5:00 PM 44.8 °F 37.4 °F 37.6 °F 76% 29.46 in - SSE 17.3 mph 31.1 mph N/A   Unknown
6:00 PM 43.9 °F 37.9 °F 38.5 °F 81% 29.50 in - SSE 11.5 mph 23.0 mph 0.02 in   Unknown
7:00 PM 42.8 °F 37.0 °F 38.3 °F 84% 29.55 in - SSE 10.4 mph 18.4 mph 0.01 in   Unknown
8:00 PM 43 °F - 36 °F 67% 29.62 in - South 11.5 mph - -  
8:00 PM 43.0 °F 36.8 °F 35.6 °F 75% 29.62 in - South 11.5 mph 18.4 mph N/A   Unknown
9:00 PM 41.9 °F 35.9 °F 35.6 °F 78% 29.69 in - SSE 10.4 mph 19.6 mph N/A   Unknown
10:00 PM 41.4 °F 34.7 °F 34.7 °F 77% 29.74 in - SSE 11.5 mph 20.7 mph N/A   Unknown
11:00 PM 40 °F - 37 °F 83% 29.80 in - South 2.3 mph - -  
11:00 PM 40.1 °F - 36.7 °F 88% 29.80 in - South 2.3 mph - N/A   Unknown